Showing default

COSMOS 2523, 42986

Orbit data source: Space-Track

COSMOS 2523, 42986 is a payload satellite owned by VVKO VKS (CIS) in SSO that was launched on Fri, 23 Jun 2017 UTC via a SOYUZ-2-1V launch vehicle from the Plesetsk Missile And Space Complex (PKMTR). Payload-class satellites include a variety of spacecraft equipped with specific instruments for various scientific and technological missions. These include communications satellites like Starlink; space stations such as the ISS; scientific satellites like the Hubble; Earth observation satellites from companies like Planet Labs, Umbra, and HawkEye 360; GPS; miniature CubeSats for education and research; and military/defense satellites.

Loading next visibility...
Identifier
42986, 2017-037E
Orbit
SSO
Country
Flag of CISCIS
Related business
Manufacturer
TSKHM?
Mission
Operational Defense Technology
Bus & Motor
NAPRAZHENIYE?, Unknown motor
Mass
~47 kg wet, ~47 kg dry
Launch date (UTC)
2017-06-23 (8 years ago)
Launch vehicle
SOYUZ-2-1V
Launch site
Plesetsk Missile And Space Complex (PKMTR)
Object type
Payload
Rocket body
Debris
Shape & HBR
Box, 0.2 m
Radar Cross Section
0.100 m², Medium (>0.1 m² and < 1m²)

Expand to show TLE details & history
Last TLE update: 7 hours ago

TLE from 7 hours ago
0 COSMOS 2523
1 42986U 17037E   25342.98901045  .00003150  00000-0  28293-3 0  9995
2 42986  97.5085 359.2317 0068811 147.0893 213.4641 14.94581159440546
Epoch: 2025-12-08T23:44Z
TLE epoch observation values (Epoch: 2025-12-08T23:44:10.502Z)
Latitude
-0.00005°
Longitude
-74.79219°
Altitude
626.798 km
Speed
7.523 km/s
True Right ascension
23h 56m 55s
True Declination
0° 00' 00"
Sunlit
Object was in daylight at epoch
Visualization orbit readout
Latitude
Unknown
Longitude
Unknown
Altitude
Unknown
Speed
Unknown
Apparent Right ascension
Unknown
Apparent Declination
Unknown
Sunlit
N/A
Visualization observer readout
Local Sidereal Time
05:03:00
Azimuth
Unknown
Elevation
Unknown
Doppler factor
Unknown
Orbital elements
Apogee altitude
628.561 km
Perigee altitude
532.793 km
Semi-major axis
6,958.814 km
Eccentricity
0.00688
Inclination
97.5085°
RAAN
359.2317°
Arg. of periapsis
147.0893°
True anomaly
213.0324°
Mean anomaly
213.4641°
Eccentric anomaly
213.24794°
Mean motion
3.73887 °/min
Orbital period
96.29 mins
BSTAR
0.00028293
Loading maneuver chart data...
Computing Atmospheric mass density...
Loading historical data...
Loading historical data...
Loading historical data...
Loading historical data...
Loading historical data...
Loading historical data...
Loading historical data...

Documentation

Showing up to 5 results
|